• In Belarus
  • List of Countries
  • For 7 days
  • Water Temperature
  • Satellite Maps
  • Weather Map
  • Weather Widgets
  • user-avatar
    Login

    Hourly Weather Saint-Augustin

    Today, 21 January, Sunday

    Time Temperature Precipitation Wind Pressure Humidity
    00:00 -17°C° 0 mm 3 mps 748 mmHg 88%
    01:00 -18°C° 0 mm 3 mps 748 mmHg 89%
    02:00 -18°C° 0 mm 2 mps 749 mmHg 89%
    03:00 -19°C° 0 mm 2 mps 750 mmHg 90%
    04:00 -19°C° 0 mm 2 mps 750 mmHg 91%
    05:00 -20°C° 0 mm 2 mps 751 mmHg 91%
    06:00 -21°C° 0 mm 2 mps 751 mmHg 91%
    07:00 -21°C° 0 mm 2 mps 752 mmHg 91%
    08:00 -20°C° 0 mm 2 mps 752 mmHg 87%
    09:00 -19°C° 0 mm 2 mps 753 mmHg 83%
    10:00 -19°C° 0 mm 2 mps 753 mmHg 79%
    11:00 -17°C° 0 mm 2 mps 753 mmHg 76%
    12:00 -16°C° 0 mm 2 mps 753 mmHg 74%
    13:00 -15°C° 0 mm 2 mps 753 mmHg 71%
    14:00 -14°C° 0 mm 1 mps 753 mmHg 75%
    15:00 -14°C° 0 mm 1 mps 753 mmHg 79%
    16:00 -14°C° 0 mm 1 mps 753 mmHg 83%
    17:00 -15°C° 0 mm 1 mps 754 mmHg 85%
    18:00 -16°C° 0 mm 1 mps 755 mmHg 87%
    19:00 -17°C° 0 mm 1 mps 755 mmHg 89%
    20:00 -17°C° 0 mm 1 mps 755 mmHg 89%
    21:00 -17°C° 0 mm 1 mps 756 mmHg 89%
    22:00 -18°C° 0 mm 1 mps 756 mmHg 90%
    23:00 -18°C° 0 mm 1 mps 757 mmHg 90%

    Tomorrow, 22 January, Monday

    Time Temperature Precipitation Wind Pressure Humidity
    00:00 -18°C° 0 mm 1 mps 757 mmHg 89%
    01:00 -18°C° 0 mm 1 mps 758 mmHg 89%
    02:00 -19°C° 0 mm 1 mps 758 mmHg 90%
    03:00 -20°C° 0 mm 1 mps 759 mmHg 90%
    04:00 -21°C° 0 mm 1 mps 759 mmHg 91%
    05:00 -21°C° 0 mm 1 mps 760 mmHg 91%
    06:00 -22°C° 0 mm 1 mps 760 mmHg 91%
    07:00 -22°C° 0 mm 1 mps 761 mmHg 90%
    08:00 -21°C° 0 mm 1 mps 761 mmHg 86%
    09:00 -19°C° 0 mm 1 mps 761 mmHg 82%
    10:00 -18°C° 0 mm 1 mps 762 mmHg 78%
    11:00 -17°C° 0 mm 1 mps 761 mmHg 75%
    12:00 -15°C° 0 mm 1 mps 761 mmHg 72%
    13:00 -14°C° 0 mm 1 mps 760 mmHg 69%
    14:00 -14°C° 0 mm 1 mps 760 mmHg 73%
    15:00 -15°C° 0 mm 1 mps 760 mmHg 77%
    16:00 -15°C° 0 mm 1 mps 760 mmHg 81%
    17:00 -16°C° 0 mm 1 mps 760 mmHg 82%
    18:00 -16°C° 0 mm 1 mps 760 mmHg 84%
    19:00 -19°C° 0 mm 2 mps 760 mmHg 85%
    20:00 -18°C° 0 mm 2 mps 759 mmHg 83%
    21:00 -17°C° 0 mm 2 mps 759 mmHg 81%
    22:00 -18°C° 0 mm 3 mps 758 mmHg 79%
    23:00 -17°C° 0.2 mm 3 mps 757 mmHg 80%

    Day after tomorrow, 23 January, Tuesday

    Time Temperature Precipitation Wind Pressure Humidity
    00:00 -16°C° 0.2 mm 3 mps 756 mmHg 81%
    01:00 -17°C° 0.2 mm 4 mps 755 mmHg 83%
    02:00 -16°C° 0.7 mm 4 mps 754 mmHg 86%
    03:00 -16°C° 0.7 mm 4 mps 753 mmHg 89%
    04:00 -15°C° 0.7 mm 5 mps 752 mmHg 93%
    05:00 -15°C° 0.7 mm 5 mps 751 mmHg 93%
    06:00 -14°C° 0.7 mm 5 mps 750 mmHg 92%
    07:00 -15°C° 0.7 mm 6 mps 749 mmHg 92%
    08:00 -14°C° 1.1 mm 6 mps 748 mmHg 92%
    09:00 -14°C° 1.1 mm 6 mps 746 mmHg 93%
    10:00 -14°C° 1.1 mm 6 mps 745 mmHg 93%
    11:00 -12°C° 1.1 mm 6 mps 744 mmHg 92%
    12:00 -11°C° 1.1 mm 5 mps 742 mmHg 91%
    13:00 -11°C° 1.1 mm 5 mps 741 mmHg 91%
    14:00 -10°C° 0.5 mm 5 mps 740 mmHg 91%
    15:00 -10°C° 0.5 mm 5 mps 739 mmHg 92%
    16:00 -8°C° 0.5 mm 5 mps 737 mmHg 92%
    17:00 -8°C° 0.5 mm 4 mps 737 mmHg 92%
    18:00 -7°C° 0.5 mm 4 mps 736 mmHg 92%
    19:00 -7°C° 0.5 mm 4 mps 735 mmHg 92%
    20:00 -6°C° 0.6 mm 3 mps 734 mmHg 93%
    21:00 -6°C° 0.6 mm 3 mps 734 mmHg 94%
    22:00 -6°C° 0.6 mm 3 mps 733 mmHg 94%
    23:00 -5°C° 0.7 mm 2 mps 732 mmHg 95%

    24 January, Wednesday

    Time Temperature Precipitation Wind Pressure Humidity
    00:00 -5°C° 0.7 mm 2 mps 732 mmHg 96%
    01:00 -5°C° 0.7 mm 2 mps 731 mmHg 96%
    02:00 -5°C° 0.6 mm 2 mps 732 mmHg 96%
    03:00 -6°C° 0.6 mm 3 mps 732 mmHg 95%
    04:00 -6°C° 0.6 mm 3 mps 732 mmHg 95%
    05:00 -8°C° 0.3 mm 4 mps 732 mmHg 94%
    06:00 -10°C° 0.3 mm 5 mps 733 mmHg 92%
    07:00 -10°C° 0.3 mm 5 mps 734 mmHg 91%
    08:00 -11°C° 0.2 mm 6 mps 734 mmHg 89%
    09:00 -12°C° 0.2 mm 6 mps 735 mmHg 88%
    10:00 -14°C° 0.2 mm 7 mps 736 mmHg 87%
    11:00 -15°C° 0.1 mm 7 mps 737 mmHg 86%
    12:00 -15°C° 0.1 mm 7 mps 738 mmHg 85%
    13:00 -17°C° 0.1 mm 7 mps 738 mmHg 85%
    14:00 -17°C° 0.1 mm 6 mps 739 mmHg 84%
    15:00 -17°C° 0.1 mm 6 mps 740 mmHg 84%
    16:00 -18°C° 0.1 mm 6 mps 741 mmHg 84%
    17:00 -20°C° 0.1 mm 6 mps 741 mmHg 84%
    18:00 -19°C° 0.1 mm 5 mps 742 mmHg 84%
    19:00 -20°C° 0.1 mm 5 mps 743 mmHg 85%
    20:00 -20°C° 0.1 mm 5 mps 743 mmHg 85%
    21:00 -21°C° 0.1 mm 5 mps 744 mmHg 85%
    22:00 -22°C° 0.1 mm 6 mps 744 mmHg 85%
    23:00 -23°C° 0.1 mm 6 mps 745 mmHg 86%

    25 January, Thursday

    Time Temperature Precipitation Wind Pressure Humidity
    00:00 -23°C° 0.1 mm 6 mps 745 mmHg 86%
    01:00 -24°C° 0.1 mm 6 mps 746 mmHg 87%
    02:00 -26°C° 0.1 mm 6 mps 746 mmHg 87%
    03:00 -27°C° 0.1 mm 6 mps 747 mmHg 88%
    04:00 -28°C° 0.1 mm 6 mps 747 mmHg 88%
    05:00 -27°C° 0.1 mm 5 mps 748 mmHg 88%
    06:00 -28°C° 0.1 mm 5 mps 748 mmHg 88%
    07:00 -28°C° 0.1 mm 5 mps 749 mmHg 88%
    08:00 -28°C° 0.1 mm 5 mps 750 mmHg 88%
    09:00 -28°C° 0.1 mm 5 mps 750 mmHg 88%
    10:00 -28°C° 0.1 mm 5 mps 751 mmHg 88%
    11:00 -27°C° 0 mm 5 mps 751 mmHg 88%
    12:00 -27°C° 0 mm 5 mps 751 mmHg 88%
    13:00 -26°C° 0 mm 5 mps 751 mmHg 88%
    14:00 -26°C° 0 mm 5 mps 752 mmHg 87%
    15:00 -26°C° 0 mm 5 mps 753 mmHg 87%
    16:00 -25°C° 0 mm 4 mps 753 mmHg 87%
    17:00 -26°C° 0 mm 4 mps 754 mmHg 87%
    18:00 -27°C° 0 mm 4 mps 755 mmHg 88%
    19:00 -29°C° 0 mm 4 mps 756 mmHg 88%
    20:00 -27°C° 0 mm 3 mps 757 mmHg 89%
    21:00 -29°C° 0 mm 3 mps 757 mmHg 90%
    22:00 -30°C° 0 mm 3 mps 757 mmHg 91%
    23:00 -31°C° 0 mm 3 mps 758 mmHg 91%

    26 January, Friday

    Time Temperature Precipitation Wind Pressure Humidity
    00:00 -31°C° 0 mm 3 mps 758 mmHg 92%
    01:00 -30°C° 0 mm 2 mps 759 mmHg 93%
    02:00 -31°C° 0 mm 2 mps 759 mmHg 93%
    03:00 -31°C° 0 mm 2 mps 760 mmHg 93%
    04:00 -32°C° 0 mm 2 mps 761 mmHg 94%
    05:00 -32°C° 0 mm 2 mps 761 mmHg 94%
    06:00 -34°C° 0 mm 2 mps 761 mmHg 94%
    07:00 -31°C° 0 mm 1 mps 762 mmHg 94%
    08:00 -29°C° 0 mm 1 mps 762 mmHg 93%
    09:00 -28°C° 0 mm 1 mps 763 mmHg 91%
    10:00 -25°C° 0 mm 1 mps 763 mmHg 89%
    11:00 -23°C° 0 mm 1 mps 762 mmHg 88%
    12:00 -22°C° 0 mm 1 mps 762 mmHg 88%
    13:00 -20°C° 0 mm 1 mps 762 mmHg 87%
    14:00 -20°C° 0 mm 1 mps 762 mmHg 89%
    15:00 -20°C° 0 mm 1 mps 762 mmHg 91%
    16:00 -21°C° 0 mm 1 mps 762 mmHg 93%
    17:00 -22°C° 0 mm 1 mps 763 mmHg 94%
    18:00 -23°C° 0 mm 1 mps 763 mmHg 95%
    19:00 -25°C° 0 mm 1 mps 764 mmHg 96%
    20:00 -25°C° 0 mm 1 mps 764 mmHg 96%
    21:00 -25°C° 0 mm 1 mps 764 mmHg 96%
    22:00 -25°C° 0 mm 1 mps 764 mmHg 96%
    23:00 -25°C° 0 mm 1 mps 764 mmHg 96%
    Show more